星链-4778 (STARLINK-4778 )

导读

STARLINK-4778是美国SpaceX星链卫星互联网项目的卫星,于2022年9月19日发射入轨,属于星链低轨卫星星座组网成员。星链项目通过部署数千颗低轨卫星,为全球提供覆盖偏远地区的高速互联网服务,该卫星正常运行中,承担星链星座的通信转发任务,支撑星座网络服务的稳定性与覆盖能力。

Basic Information
目录编号:
53836
目录名称:
STARLINK-4778
国际标识:
2022-114U
轨道中心:
EARTH
卫星名称:
星链-4778
卫星全名:
星链-4778 (STARLINK-4778 )
卫星状态:
在轨 (已飞行1446 天)
发射日期:
2022-09-19 UTC
国别 :
美国 (US)
星等 :
--
Orbit Information
数据来源 国际轨道数据
星历时间: 2026-09-04T13:30:37+0800
8小时前
查看轨道信息
半长轴: 6864.371km
偏心率: 0.0001995
轨道倾角: 53.179°
近地点辐角 83.175°
升交点赤经 189.494°
平近点角 276.947°
近地点: 484.864km
远地点: 487.604km
周期: 94.332分钟
每日圈数: 15.26517
Detailed Information
固有亮度:
5
最大亮度:
2.5
卫星平台:
Starlink v1.5
覆盖范围:
全球
运营商:
太空探索技术公司
运营商所在国:
美国
制造商(研发单位):
太空探索技术公司
制造商所在国:
美国
使用方式:
暂无
Satellite Introduction
星链(Starlink)计划是由太空探索技术公司(SpaceX)提出的一个巨型低轨卫星互联网星座项目,计划在2019年至2024年间在太空搭建由约1.2万颗卫星组成的“星链”网络,其中1584颗将部署在地球上空550千米处的近地轨道,并从2020年开始工作。该卫星仍在工作。
2D Orbit Map
3D Orbit Map
Orbit Altitude Analysis Chart
Orbit Inclination Analysis Chart
Orbit Comprehensive Analysis Chart
View Comprehensive Chart
Conjunction Data List
Event ID Objects TCA Miss Dist (km) Collision Risk Probability Collision Risk Index (CRI) Action
CDM_260903-105305-383605-602221
2026-09-03T
10:53:33+0000
2.154 km
极远距离
1.482829E-6 低风险 0.38
CDM_260903-111105-383606-396421
2026-09-03T
11:11:20+0000
2.065 km
极远距离
1.473686E-6 低风险 0.38
CDM_260906-021305-383606-652521
2026-09-06T
02:13:41+0000
2.737 km
极远距离
1.284433E-6 低风险 0.37